Location: Newark
(41.7661°N, 124.2169°W)
Time: 08:17:53
(UTC+00:00)

ISS - Visible Passes

Search period start: 21 November 2019 00:00
Search period end: 01 December 2019 00:00
Orbit: 412 x 421 km, 51.6° (Epoch: 21 November)

Date Brightness Start Highest point End Pass type
(mag) Time Alt. Az. Time Alt. Az. Time Alt. Az.
21 Nov -2.2 02:44:49 10° SSW 02:46:47 27° S 02:46:47 27° S visible
22 Nov -2.2 01:57:06 10° S 01:59:42 21° SE 02:00:44 18° ESE visible
22 Nov -0.6 03:32:57 10° WSW 03:33:39 15° WSW 03:33:39 15° WSW visible
23 Nov -3.5 02:44:28 10° WSW 02:47:30 69° W 02:47:30 69° W visible
24 Nov -3.6 01:56:08 10° SW 01:59:26 59° SE 02:01:15 24° ENE visible
24 Nov -0.6 03:33:32 10° W 03:34:10 14° WNW 03:34:10 14° WNW visible
25 Nov -2.5 02:44:45 10° W 02:47:50 34° NNW 02:47:50 34° NNW visible
26 Nov -3.2 01:56:04 10° WSW 01:59:21 52° NNW 02:01:27 20° NE visible
26 Nov -0.4 03:34:19 10° NW 03:34:21 10° NW 03:34:21 10° NW visible
27 Nov -1.8 02:45:25 10° WNW 02:47:54 21° NNW 02:47:54 21° NNW visible
28 Nov -2.2 01:56:32 10° W 01:59:26 26° NNW 02:01:24 16° NNE visible
29 Nov -1.4 02:46:08 10° NW 02:47:46 15° NNW 02:47:46 15° NNW visible
30 Nov -1.7 01:57:13 10° WNW 01:59:37 18° NNW 02:01:13 14° NNE visible
